SPACEBEE-36 (46935 NORAD) Tracking and Keplerian Element Data

This shows tracking and keplerian element data for the satellite.

Feedback or suggestion? Click here.




ElementValue
Catalog46935
NameSPACEBEE-36
Epoch Orbit894
Epoch Day17.92604109
Epoch Year2021
RAAN157.3578
Inclination97.3745
Eccentricity0.001717
Argument of Perigee94.9488
Mean Anonmoly265.3706
Mean Motion15.21730552
Decay Rate3.898E-05
L11 46935U 20085G 21017.92604109 .00003898 00000-0 17450-3 0 9992
L22 46935 97.3745 157.3578 0017170 94.9488 265.3706 15.21730552 8949

Live tracking and technical data element details for SPACEBEE-36 (NORAD 46935). SPACEBEE-36 can be tracked NOW for your location showing map with azimuth and elevation plus other details from your city location.

Track the satellite on the map from your city or location and see movement details for azimuth, elevation, latitude, longitude, range, height, and movement on the map or in text.







IsCatalogInMostPopularTable: catalog: 46935, numindb: 22
Update: records affected: 1



GetName: 46935 SPACEBEE-36

Hit Count: updated at: Tue, 19 Jan 2021 01:54:01 GMT